Flippin, AR

12:53 AM CDT on April 25, 2017 (GMT -0500)
Marion County Regional

Weather History for KFLP - January, 2014

Change the Weather History Date:

Tuesday, January 21, 2014

  Actual Average Record
Temperature  
Mean Temperature 30 °F -  
Max Temperature 42 °F 45 °F 69 °F (1999)
Min Temperature 17 °F 25 °F 10 °F (2011)
Degree Days  
Heating Degree Days 36    
Moisture  
Dew Point 5 °F    
Average Humidity 42    
Maximum Humidity 54    
Minimum Humidity 27    
Precipitation  
Precipitation 0.00 in - - ()
Sea Level Pressure  
Sea Level Pressure 30.23 in    
Wind  
Wind Speed 12 mph (NW)    
Max Wind Speed 21 mph    
Max Gust Speed 38 mph    
Visibility 10 miles    
Events      
Averages and records for this station are not official NWS values.
T = Trace of Precipitation, MM = Missing Value Source: NWS Daily Summary

Daily Weather History Graph

Daily Weather History Graph

Search for Another Location

Airport or City:

Trip Planner

Search our weather history database for the weather conditions in past years. The results will help you decide how hot, cold, wet, or windy it might be!

Date:

Astronomy

Jan. 21, 2014 Rise Set
Actual Time 7:18 AM CST 5:25 PM CST
Civil Twilight 6:50 AM CST 5:52 PM CST
Nautical Twilight 6:19 AM CST 6:24 PM CST
Astronomical Twilight 5:48 AM CST 6:54 PM CST
Moon 10:47 PM CST (1/21) 9:58 AM CST (1/21)
Length of Visible Light 11h 02m
Length of Day
10h 06m
Waning Gibbous, 74% of the Moon is Illuminated
Jan 21
Waning Gibbous
Jan 23
Last Quarter
Jan 30
New
Feb 6
First Quarter
Feb 14
Full

Hourly Weather History & Observations

Time (CST) Temp. Windchill Dew Point Humidity Pressure Visibility Wind Dir Wind Speed Gust Speed Precip Events Conditions
12:15 AM 42.8 °F 35.8 °F 19.4 °F 39% 30.04 in 10.0 mi WNW 13.8 mph 18.4 mph N/A   Clear
12:35 AM 42.8 °F 34.5 °F 19.4 °F 39% 30.04 in 10.0 mi NW 18.4 mph 31.1 mph N/A   Clear
12:55 AM 42.8 °F 35.4 °F 19.4 °F 39% 30.04 in 10.0 mi WNW 15.0 mph 23.0 mph N/A   Clear
1:15 AM 41.0 °F 34.3 °F 17.6 °F 39% 30.05 in 10.0 mi WNW 11.5 mph 23.0 mph N/A   Clear
1:35 AM 39.2 °F 29.8 °F 17.6 °F 42% 30.05 in 10.0 mi WNW 18.4 mph 26.5 mph N/A   Partly Cloudy
1:55 AM 37.4 °F 31.4 °F 17.6 °F 45% 30.07 in 10.0 mi NNW 8.1 mph 21.9 mph N/A   Clear
2:15 AM 37.4 °F 26.9 °F 17.6 °F 45% 30.08 in 10.0 mi NW 20.7 mph 28.8 mph N/A   Clear
2:35 AM 35.6 °F 25.9 °F 15.8 °F 44% 30.10 in 10.0 mi NW 16.1 mph 36.8 mph N/A   Clear
2:55 AM 33.8 °F 23.5 °F 15.8 °F 48% 30.12 in 10.0 mi NW 16.1 mph 33.4 mph N/A   Scattered Clouds
3:15 AM 32.0 °F 19.8 °F 14.0 °F 48% 30.14 in 10.0 mi NW 20.7 mph 38.0 mph N/A   Mostly Cloudy
3:35 AM 30.2 °F 19.3 °F 12.2 °F 47% 30.15 in 10.0 mi NW 15.0 mph 28.8 mph N/A   Mostly Cloudy
3:55 AM 30.2 °F 19.8 °F 12.2 °F 47% 30.15 in 10.0 mi NW 13.8 mph 24.2 mph N/A   Mostly Cloudy
4:15 AM 28.4 °F 16.2 °F 12.2 °F 51% 30.16 in 10.0 mi NW 17.3 mph 28.8 mph N/A   Overcast
4:35 AM 28.4 °F 15.1 °F 12.2 °F 51% 30.17 in 10.0 mi NNW 20.7 mph 31.1 mph N/A   Overcast
4:55 AM 28.4 °F 15.1 °F 10.4 °F 47% 30.18 in 10.0 mi NW 20.7 mph 27.6 mph N/A   Overcast
5:15 AM 28.4 °F 15.8 °F 10.4 °F 47% 30.18 in 10.0 mi NNW 18.4 mph 31.1 mph N/A   Mostly Cloudy
5:35 AM 26.6 °F 15.2 °F 10.4 °F 51% 30.20 in 10.0 mi NW 13.8 mph 21.9 mph N/A   Mostly Cloudy
5:55 AM 24.8 °F 11.5 °F 6.8 °F 46% 30.22 in 10.0 mi NW 17.3 mph 25.3 mph N/A   Scattered Clouds
6:15 AM 23.0 °F 11.1 °F 6.8 °F 50% 30.25 in 10.0 mi NNW 12.7 mph 23.0 mph N/A   Scattered Clouds
6:35 AM 21.2 °F 8.9 °F 3.2 °F 46% 30.27 in 10.0 mi North 12.7 mph 23.0 mph N/A   Scattered Clouds
6:55 AM 21.2 °F 7.8 °F 3.2 °F 46% 30.28 in 10.0 mi NNW 15.0 mph 34.5 mph N/A   Scattered Clouds
7:15 AM 19.4 °F 5.0 °F 3.2 °F 49% 30.30 in 10.0 mi North 16.1 mph 26.5 mph N/A   Mostly Cloudy
7:35 AM 19.4 °F 4.5 °F 3.2 °F 49% 30.30 in 10.0 mi NNW 17.3 mph 33.4 mph N/A   Scattered Clouds
7:55 AM 17.6 °F 3.7 °F 3.2 °F 53% 30.32 in 10.0 mi NNW 13.8 mph 20.7 mph N/A   Partly Cloudy
8:15 AM 17.6 °F 3.2 °F 1.4 °F 49% 30.32 in 10.0 mi NW 15.0 mph 20.7 mph N/A   Mostly Cloudy
8:35 AM 17.6 °F 3.7 °F 1.4 °F 49% 30.33 in 10.0 mi NW 13.8 mph 24.2 mph N/A   Mostly Cloudy
8:55 AM 17.6 °F 5.0 °F 3.2 °F 53% 30.34 in 10.0 mi NNW 11.5 mph 23.0 mph N/A   Partly Cloudy
9:15 AM 19.4 °F 6.6 °F 3.2 °F 49% 30.35 in 10.0 mi North 12.7 mph 17.3 mph N/A   Scattered Clouds
9:35 AM 17.6 °F 4.3 °F 1.4 °F 49% 30.35 in 10.0 mi NNW 12.7 mph 23.0 mph N/A   Overcast
9:55 AM 19.4 °F 7.9 °F 1.4 °F 46% 30.36 in 10.0 mi NNW 10.4 mph 19.6 mph N/A   Mostly Cloudy
10:15 AM 19.4 °F 7.9 °F 1.4 °F 46% 30.37 in 10.0 mi North 10.4 mph 17.3 mph N/A   Scattered Clouds
10:35 AM 21.2 °F 8.9 °F 1.4 °F 42% 30.36 in 10.0 mi North 12.7 mph 19.6 mph N/A   Clear
10:55 AM 21.2 °F 8.3 °F 3.2 °F 46% 30.37 in 10.0 mi NNW 13.8 mph 18.4 mph N/A   Clear
11:15 AM 21.2 °F 9.5 °F 1.4 °F 42% 30.37 in 10.0 mi NW 11.5 mph 18.4 mph N/A   Clear
11:35 AM 23.0 °F 11.7 °F 3.2 °F 43% 30.36 in 10.0 mi NNW 11.5 mph 19.6 mph N/A   Clear
11:55 AM 24.8 °F 13.4 °F 3.2 °F 40% 30.35 in 10.0 mi NNW 12.7 mph 19.6 mph N/A   Clear
12:15 PM 24.8 °F 13.4 °F 1.4 °F 36% 30.33 in 10.0 mi NNW 12.7 mph 18.4 mph N/A   Clear
12:35 PM 24.8 °F 12.4 °F 1.4 °F 36% 30.32 in 10.0 mi North 15.0 mph - N/A   Clear
12:55 PM 26.6 °F 16.2 °F 1.4 °F 34% 30.30 in 10.0 mi NNE 11.5 mph 17.3 mph N/A   Clear
1:15 PM 26.6 °F 16.2 °F 1.4 °F 34% 30.30 in 10.0 mi West 11.5 mph 18.4 mph N/A   Clear
1:35 PM 26.6 °F 17.5 °F 1.4 °F 34% 30.29 in 10.0 mi NNW 9.2 mph 16.1 mph N/A   Clear
1:55 PM 26.6 °F 16.8 °F 1.4 °F 34% 30.28 in 10.0 mi North 10.4 mph - N/A   Clear
2:15 PM 26.6 °F 19.1 °F 1.4 °F 34% 30.27 in 10.0 mi NW 6.9 mph - N/A   Clear
2:35 PM 28.4 °F 19.1 °F -0.4 °F 29% 30.27 in 10.0 mi NW 10.4 mph - N/A   Clear
2:55 PM 28.4 °F 19.1 °F -0.4 °F 29% 30.26 in 10.0 mi NNW 10.4 mph - N/A   Clear
3:15 PM 28.4 °F 19.1 °F -2.2 °F 27% 30.27 in 10.0 mi NNW 10.4 mph - N/A   Clear
3:35 PM 28.4 °F 22.2 °F -0.4 °F 29% 30.25 in 10.0 mi NW 5.8 mph - N/A   Clear
3:55 PM 28.4 °F 23.3 °F -0.4 °F 29% 30.25 in 10.0 mi North 4.6 mph - N/A   Clear
4:15 PM 28.4 °F 22.2 °F -0.4 °F 29% 30.25 in 10.0 mi NNE 5.8 mph - N/A   Clear
4:35 PM 28.4 °F 22.2 °F -0.4 °F 29% 30.25 in 10.0 mi NW 5.8 mph - N/A   Clear
4:55 PM 28.4 °F 23.3 °F -0.4 °F 29% 30.25 in 10.0 mi NW 4.6 mph - N/A   Clear
5:15 PM 26.6 °F 21.2 °F -0.4 °F 31% 30.24 in 10.0 mi WNW 4.6 mph - N/A   Clear
5:35 PM 26.6 °F 22.6 °F -0.4 °F 31% 30.24 in 10.0 mi WNW 3.5 mph - N/A   Clear
5:55 PM 24.8 °F - -2.2 °F 31% 30.23 in 10.0 mi Calm Calm - N/A   Clear
6:15 PM 24.8 °F 20.5 °F -0.4 °F 34% 30.23 in 10.0 mi WSW 3.5 mph - N/A   Clear
6:35 PM 23.0 °F - 1.4 °F 39% 30.23 in 10.0 mi Calm Calm - N/A   Clear
6:55 PM 24.8 °F - -0.4 °F 34% 30.22 in 10.0 mi Calm Calm - N/A   Clear
7:15 PM 23.0 °F 18.4 °F -0.4 °F 36% 30.23 in 10.0 mi NNW 3.5 mph - N/A   Clear
7:35 PM 21.2 °F - 1.4 °F 42% 30.21 in 10.0 mi Calm Calm - N/A   Clear
7:55 PM 21.2 °F - 1.4 °F 42% 30.21 in 10.0 mi Calm Calm - N/A   Clear
8:15 PM 21.2 °F - -0.4 °F 39% 30.22 in 9.0 mi Calm Calm - N/A   Clear
8:35 PM 21.2 °F - 3.2 °F 46% 30.21 in 10.0 mi Calm Calm - N/A   Clear
8:55 PM 19.4 °F - 5.0 °F 54% 30.21 in 10.0 mi Calm Calm - N/A   Clear
9:15 PM 21.2 °F - 3.2 °F 46% 30.20 in 10.0 mi Calm Calm - N/A   Clear
9:35 PM 21.2 °F - 6.8 °F 54% 30.20 in 10.0 mi Calm Calm - N/A   Scattered Clouds
9:55 PM 21.2 °F - 3.2 °F 46% 30.19 in 10.0 mi Calm Calm - N/A   Mostly Cloudy
10:15 PM 21.2 °F - 1.4 °F 42% 30.19 in 10.0 mi Calm Calm - N/A   Overcast
10:35 PM 21.2 °F 16.4 °F 3.2 °F 46% 30.19 in 10.0 mi SW 3.5 mph - N/A   Mostly Cloudy
10:55 PM 21.2 °F - 1.4 °F 42% 30.20 in 10.0 mi Calm Calm - N/A   Clear
11:15 PM 21.2 °F - 1.4 °F 42% 30.19 in 10.0 mi Calm Calm - N/A   Clear
11:35 PM 21.2 °F - 1.4 °F 42% 30.19 in 10.0 mi Calm Calm - N/A   Clear
11:55 PM 19.4 °F - 3.2 °F 49% 30.18 in 10.0 mi Calm Calm - N/A   Clear